Regional Weather Roundup
Issued by NWS

Home | Current Version | Previous Version | Text Only | Print | Product List | Glossary On
Versions: 1 2 3 4 5 6 7 8 9 10 11 12 13 14 15 16 17 18 19 20 21 22 23 24 25 26 27 28 29 30 31 32 33 34 35 36 37 38 39 40 41 42 43 44 45 46 47 48 49 50
211
ASUS43 KMKX 250421
RWRWI

WISCONSIN REGIONAL WEATHER ROUNDUP
NATIONAL WEATHER SERVICE MILWAUKEE/SULLIVAN WI
1100 PM CDT SAT JUN 24 2017

NOTE: "FAIR" INDICATES FEW OR NO CLOUDS BELOW 12,000 FEET WITH NO
SIGNIFICANT WEATHER AND/OR OBSTRUCTIONS TO VISIBILITY.

WIZ001-002-006>008-014>016-023>028-250500-
NORTHWEST WISCONSIN

CITY           SKY/WX    TMP DP  RH WIND       PRES   REMARKS
SUPERIOR ARPT  NOT AVBL
ASHLAND        CLOUDY    56  48  74 NW5       29.98R
HAYWARD        CLOUDY    54  49  83 CALM      30.01S
SIREN          PTCLDY    52  46  78 CALM      30.03F
CUMBERLAND     PTCLDY    50  45  81 NW5       30.03S
RICE LAKE      PTCLDY    54  47  75 W5        30.04S
CHETEK         CLOUDY    54  47  76 NW5       30.03S
LADYSMITH      CLOUDY    55  48  77 W7        30.02S
EAU CLAIRE     CLEAR     54  47  77 W7        30.03R
MENOMONIE      CLEAR     55  46  73 W7        30.05R
NEW RICHMOND   CLEAR     52  45  77 W6        30.06S
OSCEOLA        CLEAR     53  47  81 SW6       30.08S
$$

WIZ003>005-009-010-017-018-250500-
NORTH CENTRAL WISCONSIN

CITY           SKY/WX    TMP DP  RH WIND       PRES   REMARKS
MANITOWISH WTR CLOUDY    53  52  97 W6        29.95F
ARBOR VITAE    LGT RAIN  55  52  90 W3        29.96S
WOODRUFF       LGT RAIN  55  52  90 W3        29.96S
RHINELANDER    LGT RAIN  51  50  96 W5        29.97S
EAGLE RIVER    RAIN      51  51  99 CALM      29.95S
LAND O LAKES   RAIN      52  51  97 CALM      29.96F
PHILLIPS       CLOUDY    51  48  87 W3        29.98S
TOMAHAWK       NOT AVBL
MEDFORD        CLOUDY    51  46  84 W3        30.00S
MERRILL        CLOUDY    52  51  95 W5        29.99S
$$

WIZ029-030-035-036-043>047-250500-
CENTRAL WISCONSIN

CITY           SKY/WX    TMP DP  RH WIND       PRES   REMARKS
WAUSAU         CLOUDY    53  47  79 W9        29.98F
MOSINEE        CLOUDY    52  46  82 W7        30.01S
MARSHFIELD     MOCLDY    51  46  83 W6        30.01S
STEVENS POINT  CLOUDY    53  46  76 W6        30.01S
WAUPACA        CLOUDY    54  51  92 SW3       30.01R
WAUTOMA        CLEAR     52  47  83 W8        30.02S
WISC RAPIDS    MOCLDY    53  45  74 W6        30.03R
CAMP DOUGLAS   CLEAR     47  46  97 W6        30.04R
$$

WIZ011>013-019>022-031-037>040-048>050-250500-
NORTHEAST WISCONSIN

CITY           SKY/WX    TMP DP  RH WIND       PRES   REMARKS
ANTIGO         CLOUDY    52  48  86 W10       29.98S
SHAWANO        MOCLDY    59  46  62 W5        29.96S
OCONTO         CLOUDY    50  50  99 CALM      29.94F
STURGEON BAY     N/A     54  52  93 CALM        N/A
GREEN BAY      CLOUDY    57  48  72 W14       29.96R
MANITOWOC      CLOUDY    60  47  61 W10       29.96S
APPLETON       LGT RAIN  52  43  71 SW10G24   29.99R
CLINTONVILLE   LGT RAIN  57  45  62 NW7       29.98S
OSHKOSH        PTCLDY    55  46  71 W8        30.00R
$$

WIZ032>034-041-042-053>061-250500-
SOUTHWEST WISCONSIN

CITY           SKY/WX    TMP DP  RH WIND       PRES   REMARKS
LA CROSSE      CLEAR     58  50  75 CALM      30.06R
SPARTA         CLEAR     48  48  99 CALM      30.06S
VIROQUA        CLEAR     50  49  95 SW8       30.07S
BOSCOBEL       CLEAR     54  52  93 S3        30.08S
PRAIRIE DU CHI CLEAR     53  51  94 CALM      30.08S
PLATTEVILLE    CLEAR     53  53 100 W6        30.09S
$$

WIZ056-057-062-063-064-067-068-250500-
SOUTH CENTRAL WISCONSIN

CITY           SKY/WX    TMP DP  RH WIND       PRES   REMARKS
REEDSBURG      CLEAR     50  47  92 W5        30.05S
BARABOO/DELLS  CLEAR     50  46  84 W6        30.05S
LONE ROCK      CLEAR     53  49  86 CALM      30.07R
MINERAL POINT  CLEAR     54  54 100 W7        30.08S
MADISON        PTCLDY    54  51  90 VRB5      30.04S
MIDDLETON      CLEAR     53  53 100 W6        30.06S
WATERTOWN      CLEAR     53  53 100 SW7       30.03S
MONROE         CLEAR     54  50  87 W9        30.07S
JANESVILLE     CLEAR     54  54 100 SW7       30.05S
$$

WIZ051-052-058>065-066-070>072-250500-
SOUTHEAST WISCONSIN

CITY           SKY/WX    TMP DP  RH WIND       PRES   REMARKS
MILWAUKEE      PTCLDY    57  50  77 SW10      30.02R
WAUKESHA       CLEAR     50  46  87 SW7       30.03S
MILWAUKEE/TIMM CLEAR     54  45  71 SW9       30.02S
RACINE         CLEAR     55  48  77 SW6       30.03S
KENOSHA        CLEAR     53  49  86 W6        30.03F
FOND DU LAC    CLEAR     55  44  66 W8        30.01R
SHEBOYGAN      MOCLDY    56  47  71 W14       29.97F
WEST BEND      CLEAR     54  45  71 W10G18    30.01S
JUNEAU         CLEAR     51  48  87 W5        30.04S
$$

LSZ147-162-250500-
LAKE SUPERIOR

STATION/POSITION TIME  TEMP    WIND        PRES    WAVE
                       AIR SEA DIR/SP/G            HT/PER
                 (UTC) (F)     (DEG/KT/KT) (MB)    (FT/S)
W MID LAKE BUOY  0350   44 39  290/  6/  6 1014.2S   1/ 4
DEVILS ISLAND    0400   55     310/ 14/ 16 1014.6R
SAXON HARBOR     0340   58     270/  7/  9 1014.2R
$$

LMZ867-665-643>646-250500-
LAKE MICHIGAN

STATION/POSITION TIME  TEMP    WIND        PRES    WAVE
                       AIR SEA DIR/SP/G            HT/PER
                 (UTC) (F)     (DEG/KT/KT) (MB)    (FT/S)
CHAMBERS ISLAND  0340   57     290/  5/  7 1013.5F
S GREEN BAY BUOY 0400   59     100/  8/ 10 1013.8
N MID LAKE BUOY  0350   57 57  310/  6/  8 1014.1R   1/ 3
NORTHPORT PIER   0330   56     190/  3/  6 1013.9S
KEWAUNEE LAKESHO 0354   53      10/  6/  9 1013.5F
SHEBOYGAN LAKESH 0400   59     250/ 11/ 13 1014.7F
PORT WASHINGTON  0340   60     260/ 10/ 18 1016.3S
ATWATER BUOY     0309   60 56  240/ 12/ 16 1016.1F
MILWAUKEE LAKESH 0400   57     250/ 12/ 14   N/A
S MID LAKE BUOY  0350   62 62  300/ 14/ 17 1015.9F   3/ 4
KENOSHA   LAKESH 0400   59     290/  4/  8 1016.6
$$

TC  - TEMPERATURE IN CELSIUS
VSB - VISIBILITY IN STATUTE MILES
WCI - WIND CHILL INDEX
HX  - HEAT INDEX





USA.gov is the U.S. government's official web portal to all federal, state and local government web resources and services.